GFSFLT2_850_temp_024.txt.gz
Temp
12 12 13 12 12 14 15 15 15 15 15 15 15 15 15 15 14 14 14 14 14 13 13 13 13 12 13 12 12 12 12 12
11 11 13 13 13 14 15 15 15 15 15 15 15 15 14 14 14 14 13 13 13 12 12 13 13 12 12 12 12 12 11 11
12 13 12 12 14 14 14 15 15 14 15 14 14 14 13 13 13 13 12 12 12 12 12 12 12 12 12 12 11 11 11 11
13 13 13 13 14 14 14 14 14 14 14 13 13 13 13 12 12 12 12 12 12 12 12 12 11 11 11 11 11 10 10 10
12 12 13 13 14 14 14 14 13 12 12 13 12 12 13 12 12 12 12 12 12 12 11 11 11 11 11 11 10 10 10 9
12 12 13 13 13 13 13 13 13 13 13 12 12 12 12 12 13 12 12 12 11 11 11 11 11 11 11 10 10 10 9 9
13 13 13 13 13 13 13 13 13 13 12 12 12 12 12 12 12 12 12 11 11 11 11 11 11 10 10 10 9 9 9 8
13 13 13 13 13 13 13 12 13 13 13 12 12 12 12 12 12 12 12 11 11 11 11 10 10 10 10 9 9 9 8 8
13 13 13 13 13 13 13 12 12 13 13 12 12 13 13 12 11 11 11 11 11 10 10 9 9 9 8 8 8 7 7 7
13 13 13 13 13 13 13 13 13 13 12 12 12 13 12 12 11 11 10 11 10 10 10 9 8 8 7 7 6 6 6 6
13 13 13 13 13 13 13 13 13 13 12 12 12 12 12 12 11 11 11 10 10 9 8 8 8 7 6 6 5 5 5 5
14 13 13 13 13 13 13 13 13 12 12 11 11 12 12 12 12 10 10 9 9 9 8 8 7 6 6 5 4 4 4 4
15 15 14 13 13 13 13 13 13 12 12 11 12 12 12 12 11 10 10 10 9 8 7 7 6 6 5 4 4 4 3 3
15 15 14 13 14 13 13 13 13 11 11 11 11 11 11 10 10 10 10 9 8 7 6 6 5 4 3 3 3 3 2 3
14 14 14 14 13 12 12 12 11 11 10 10 10 10 10 10 10 10 8 7 6 6 5 4 3 3 2 2 2 1 1 1
16 14 13 13 12 12 12 12 11 11 11 10 10 10 10 10 9 8 7 6 6 6 5 4 3 2 2 2 1 1 0 0
14 13 12 12 11 11 12 12 11 11 10 9 9 9 9 8 7 6 6 6 5 5 4 3 2 1 1 1 1 0 0 -0
14 12 12 11 11 11 11 11 11 10 9 9 9 8 8 7 6 6 6 5 5 4 2 2 1 1 0 0 -0 -1 -1 -1
14 13 12 11 11 11 11 11 10 10 10 9 8 8 7 6 5 5 4 4 3 2 2 1 1 -0 -0 -0 -1 -1 -1 -2
14 13 12 11 11 11 11 10 10 9 9 8 8 6 6 6 5 4 4 3 2 2 1 0 -0 -0 -1 -1 -1 -1 -2 -3

GFSFLT2_850_temp_030.txt.gz
Temp
12 11 11 12 14 15 15 15 15 15 15 15 15 14 14 14 14 14 14 13 13 13 13 13 12 12 12 12 12 12 11 11
12 11 10 11 14 14 14 15 15 15 15 14 14 14 14 14 13 14 13 13 13 13 12 12 12 12 12 12 11 11 11 10
11 10 9 12 13 13 13 14 15 15 14 14 14 14 14 13 13 13 13 13 13 13 12 12 12 12 11 11 11 10 10 10
9 9 11 11 11 12 13 15 14 14 13 13 14 14 14 13 13 13 13 13 12 12 12 12 11 11 11 10 10 10 10 9
10 10 11 10 11 13 13 14 13 13 13 13 13 13 13 13 13 13 13 12 12 12 11 11 11 11 11 10 10 10 9 9
10 9 11 12 12 13 14 13 13 13 12 13 13 13 13 13 12 12 12 12 11 11 11 11 11 10 10 10 9 9 9 9
11 11 11 12 12 13 12 12 12 12 12 12 13 13 12 12 12 12 11 11 11 11 10 10 10 10 9 9 9 9 9 9
12 12 12 12 12 12 12 12 12 12 12 12 12 12 12 12 12 11 11 11 11 10 10 10 10 10 9 9 8 8 8 8
12 11 12 12 12 12 12 12 12 12 12 12 12 12 11 11 11 11 11 11 10 10 11 10 10 9 8 8 7 7 7 6
12 12 12 12 12 12 12 12 12 12 12 12 12 11 11 11 11 11 10 10 11 10 10 9 9 8 8 8 7 6 5 5
13 12 13 12 11 11 11 12 12 12 12 12 12 12 11 11 10 10 10 10 10 9 9 8 8 7 7 7 6 5 5 4
13 13 12 12 12 11 11 11 12 12 12 12 12 11 11 10 10 10 10 10 9 8 8 8 7 7 6 6 5 4 3 3
13 13 13 13 12 12 11 12 12 12 12 11 11 11 10 10 10 10 9 8 8 7 7 7 7 7 6 5 5 4 3 3
13 13 13 12 12 12 12 12 11 11 11 11 11 10 10 9 9 9 9 8 7 7 7 8 7 6 5 5 4 3 3 3
14 14 13 13 12 12 12 11 11 11 11 11 10 10 9 9 9 8 8 7 7 7 8 8 7 6 4 3 3 2 2 2
14 15 14 13 13 13 12 12 12 11 11 10 9 9 9 9 8 8 7 7 7 7 7 7 7 5 3 3 2 1 0 -0
15 14 14 13 13 13 12 11 11 10 10 9 9 9 9 8 8 7 7 7 7 7 7 6 5 4 2 2 1 0 -0 -1
14 14 13 14 13 13 12 11 10 9 9 9 9 9 8 8 7 7 7 7 7 7 6 5 4 3 1 1 -0 -1 -1 -1
14 14 14 14 14 14 13 11 10 9 10 10 10 9 9 8 7 7 7 6 5 5 5 4 3 2 0 -0 -1 -1 -1 -2
15 16 13 13 13 13 12 11 10 9 9 10 10 10 9 8 7 7 6 6 5 4 4 3 2 0 -0 -1 -1 -2 -2 -2

GFSFLT2_850_temp_033.txt.gz
Temp
12 11 11 11 12 15 15 15 15 15 15 15 14 14 14 14 13 13 13 13 13 13 12 12 12 12 12 11 11 11 11 11
12 11 11 9 10 12 14 15 15 15 15 14 14 14 14 14 14 13 13 13 12 12 12 12 12 12 11 11 11 11 11 10
11 11 10 8 11 13 14 14 13 14 14 14 14 14 13 13 14 14 13 12 12 12 12 12 11 11 11 11 11 10 10 10
10 9 8 10 12 13 13 13 14 14 13 14 14 13 13 13 13 13 12 12 12 12 12 11 11 11 11 10 10 10 10 9
8 8 9 10 11 11 11 12 13 13 13 14 13 13 13 13 13 12 12 12 12 12 11 11 11 11 10 10 10 10 10 9
8 8 9 9 10 11 12 13 13 13 13 13 13 13 13 12 12 12 12 12 12 11 11 11 11 10 10 10 10 10 9 9
9 9 9 10 11 11 13 13 13 13 13 13 13 12 12 12 12 12 12 11 11 11 11 11 11 10 10 10 9 9 9 9
10 10 11 11 12 12 12 13 13 12 12 12 12 12 12 12 12 12 11 11 11 11 11 11 10 10 9 9 9 9 9 8
11 11 11 11 12 12 12 12 12 12 12 12 12 12 12 12 11 11 11 11 11 10 10 10 10 9 9 8 8 8 8 7
12 11 10 11 12 12 12 12 12 12 12 12 12 12 11 11 11 11 11 10 10 10 10 9 9 8 8 8 7 6 6 5
12 11 11 12 12 12 12 12 12 12 12 12 12 12 11 11 11 10 10 10 10 10 9 9 8 8 8 6 5 5 5 4
12 12 12 12 12 12 11 11 11 11 12 12 12 11 11 11 10 10 10 10 9 9 8 8 7 7 6 6 6 5 4 4
12 12 12 12 12 12 11 12 12 11 12 11 12 11 11 10 10 10 10 9 9 8 8 7 7 7 6 6 5 5 4 3
13 13 13 13 12 12 12 12 11 12 11 11 11 11 11 10 10 10 9 9 8 8 8 7 7 7 6 5 4 3 3 3
13 13 13 12 13 12 12 11 11 10 11 11 11 11 10 10 9 9 9 8 7 7 7 7 6 7 7 5 4 4 2 2
14 14 13 13 12 12 12 12 12 11 11 11 10 10 9 9 9 9 8 7 7 7 6 7 7 6 6 5 4 3 2 2
15 14 13 13 13 13 13 13 13 11 10 10 9 9 9 8 8 8 8 8 8 8 6 5 5 6 5 4 3 2 1 0
15 14 14 13 13 13 13 13 12 10 10 10 9 9 8 8 8 8 8 8 7 6 6 6 5 5 5 3 2 0 0 -1
15 15 14 11 12 13 12 12 11 10 10 10 9 9 9 9 9 8 8 7 6 6 6 5 5 4 3 2 1 0 -1 -1
15 15 13 14 14 13 12 11 11 10 10 10 9 9 9 8 7 7 6 6 6 5 4 4 4 3 2 2 1 -0 -1 -2

GFSFLT2_850_temp_036.txt.gz
Temp
12 11 11 12 13 13 15 15 15 14 15 14 14 14 14 14 14 14 13 13 13 13 12 12 12 12 12 11 11 11 11 11
12 11 11 11 12 13 14 14 14 14 14 13 14 14 13 13 13 13 13 13 13 12 12 12 12 12 11 11 11 11 11 11
12 11 11 10 10 11 13 14 13 14 13 13 13 12 12 12 12 13 13 12 12 12 12 12 11 11 11 11 10 10 11 11
11 11 10 9 9 11 12 12 13 13 13 13 11 12 12 11 12 12 12 12 12 12 12 11 11 10 10 10 10 10 10 10
10 10 8 9 9 9 10 12 13 13 13 13 13 13 13 13 12 12 12 11 11 11 11 11 11 10 10 11 10 9 10 10
8 8 8 8 8 9 12 12 12 13 13 13 13 13 13 13 12 12 12 11 11 11 11 11 11 11 11 11 10 9 9 9
6 7 7 8 10 11 10 10 12 12 13 12 12 12 12 13 12 12 11 11 11 11 11 10 10 11 10 10 10 10 9 8
8 8 9 10 11 11 11 11 12 12 11 11 12 11 13 12 12 12 11 11 11 10 9 9 10 10 10 10 10 9 9 8
8 8 8 9 9 10 10 11 12 11 11 12 12 12 12 12 12 11 11 11 11 10 10 10 10 10 9 9 8 9 7 8
9 9 10 10 12 12 12 11 12 11 12 12 12 12 12 12 11 11 11 10 10 9 10 9 8 8 7 7 8 8 8 7
10 10 10 10 10 11 12 11 12 11 12 12 12 12 12 11 11 11 10 10 10 10 10 9 8 7 7 7 6 5 5 5
10 10 11 12 10 12 10 10 11 12 12 12 12 12 11 11 11 11 10 10 10 10 9 9 9 8 7 5 5 4 4 4
10 10 10 11 10 10 11 10 10 11 12 12 12 12 11 11 11 10 10 10 10 9 9 9 9 7 6 7 5 4 3 4
11 11 11 11 11 11 11 11 10 10 11 12 12 12 11 11 11 10 10 10 9 9 9 8 6 6 6 7 8 6 4 3
11 12 12 11 11 11 10 10 11 11 12 12 11 11 11 11 10 10 10 9 9 9 9 8 6 6 7 6 8 9 6 5
12 12 12 12 11 11 10 11 12 13 12 11 11 11 10 10 10 9 9 9 9 9 8 7 7 6 5 5 5 4 6 6
13 12 12 12 11 11 12 13 11 10 11 11 11 10 10 9 9 9 9 9 9 8 7 7 5 7 5 4 4 3 3 3
14 13 12 12 11 13 12 12 11 10 9 10 11 10 9 9 8 8 8 8 8 7 6 7 7 5 4 3 4 4 4 3
14 12 13 13 12 13 12 12 11 11 11 11 10 11 10 9 8 8 8 7 7 6 6 6 6 5 5 3 2 2 2 2
14 15 14 14 13 13 13 13 12 11 9 11 10 10 9 8 8 8 7 7 6 6 6 5 5 4 3 2 2 1 1 1